星链-36342(STARLINK-36342)

导读 | 豆包AI

STARLINK-36342是美国于2026年2月2日发射的星链卫星,星链计划是SpaceX推进的低轨卫星互联网星座项目,旨在实现全球范围高速互联网覆盖。该卫星将进入近地轨道,拓展星链星座规模,为全球用户提供低空延迟、高速率的网络接入服务。

基本信息
目录编号:
67649
目录名称:
STARLINK-36342
国际标识:
2026-022B
轨道中心:
EARTH
卫星名称:
星链-36342
卫星全名:
星链-36342(STARLINK-36342)
卫星状态:
在轨 (已飞行40 天)
发射日期:
2026-02-02 UTC
国别 :
美国 (US)
星等 :
--
轨道信息
数据来源 国际轨道数据
星历时间: 2026-03-13T08:41:40+0800
1天前
查看轨道信息
半长轴: 6721.988km
偏心率: 0.0001314
轨道倾角: 97.284°
近地点辐角 70.284°
升交点赤经 106.156°
平近点角 289.857°
近地点: 342.967km
远地点: 344.735km
周期: 91.413分钟
每日圈数: 15.752743
详细信息
固有亮度:
5
最大亮度:
2.5
卫星平台:
Starlink V1.0
覆盖范围:
全球
运营商:
太空探索技术公司
运营商所在国:
美国
制造商(研发单位):
太空探索技术公司
制造商所在国:
美国
使用方式:
暂无
卫星简介
Starlink 计划是 SpaceX 推出的全球卫星互联网项目,通过发射低轨道卫星,为全球尤其是偏远地区提供高速、低延迟的互联网服务。自 2019 年起,Starlink 已部署数千颗卫星,旨在缩小全球数字鸿沟,推动互联网普及。该项目还为军事、航空等行业提供通信支持,带来广泛经济效益。
2D轨道图
3D轨道图
轨道高度分析图
轨道倾角分析图
轨道综合分析图
查看轨道综合分析图